{"data":{"norad_id":64598,"intl_designator":"2025-137E","name":"STARLINK-34463","alt_names":[],"object_type":"PAYLOAD","status":"ACTIVE","operator":null,"country":"US","launch_date":"2025-06-25","launch_site_code":"AFETR","launch_vehicle":null,"mission":null,"orbit_class":"UNKNOWN","rcs_meters":null,"size_class":null,"mass_kg":null,"dimensions":null,"purposes":["comms"],"wikipedia_slug":null,"has_3d_model":false,"image_url":null,"decayed_at":null,"tle_current":{"epoch":"2026-05-24T19:15:59.758272Z","epoch_age_seconds":88119,"freshness":"FRESH","line1":"1 64598U 25137E   26144.80277498  .00013126  00000+0  45439-3 0  9992","line2":"2 64598  53.1631 342.0154 0001382  87.3890 272.7269 15.30209688 52386","mean_motion":15.30209688,"eccentricity":0.0001382,"inclination_deg":53.1631,"raan_deg":342.0154,"arg_perigee_deg":87.389,"mean_anomaly_deg":272.7269,"bstar":0.00045439,"rev_number":5238,"period_min":94.104749910589,"perigee_km":474.23901369186,"apogee_km":476.13327220857,"semimajor_km":6853.3231429502,"source":"CELESTRAK","updated_at":"2026-05-25T13:38:20.464560Z"}}}